Temperature
24 23 23 22 21 20 20 19 19 19 19 19 19 18 18 18 18 18 18 18 18 18 18 18 18 18 18 18 18 18 18 18 18 18 18 18 19 18 19 19 18 18 18
24 23 23 22 21 20 20 19 19 19 19 19 18 18 18 18 18 18 18 18 18 18 18 18 18 18 18 18 18 18 18 18 18 18 18 18 18 19 19 19 18 18 18
25 24 23 22 21 20 20 19 19 19 19 18 18 18 18 18 18 18 18 18 18 18 18 18 18 17 17 17 18 18 18 18 18 18 18 18 18 18 18 18 18 18 18
25 24 23 22 21 21 20 19 19 19 19 18 18 18 18 18 18 18 18 18 18 17 18 18 18 17 17 17 17 17 17 18 18 18 18 18 18 18 18 18 18 18 18
25 24 23 22 22 21 20 19 19 19 19 18 18 18 18 18 18 18 18 18 17 17 18 17 17 17 17 17 17 17 17 17 17 17 18 18 18 18 18 17 18 18 18
25 24 23 23 22 21 20 20 19 19 18 18 18 18 18 18 18 18 18 17 17 17 18 17 17 17 17 17 17 17 17 17 17 17 18 18 18 18 18 18 18 18 18
25 24 23 22 22 21 21 20 19 19 18 18 18 18 18 18 18 18 17 17 17 17 17 17 17 17 17 17 17 17 17 17 17 17 17 17 17 17 18 17 17 17 18
25 24 24 23 22 21 21 20 19 19 18 18 18 18 18 17 17 18 17 17 17 17 17 17 17 17 17 17 17 17 17 17 17 17 17 17 17 17 17 17 17 17 17
25 24 23 23 22 21 20 20 19 19 18 18 18 18 18 18 17 17 17 17 17 17 17 17 17 17 17 17 17 17 17 17 17 17 17 17 17 17 17 17 17 17 16
25 24 23 23 22 21 20 20 19 19 18 18 18 17 17 17 17 17 17 17 17 17 17 17 17 17 17 17 17 16 16 16 16 16 16 16 16 16 16 17 16 16 16
25 24 23 22 22 21 21 20 19 19 18 18 18 17 17 17 17 17 17 17 17 17 17 16 16 16 16 16 16 16 16 16 16 16 16 16 16 16 16 16 16 16 16
25 24 23 22 22 21 20 19 19 18 18 18 18 17 17 17 17 17 16 16 16 16 16 16 16 16 16 16 16 16 16 16 16 16 16 16 16 16 16 16 16 16 16
24 24 23 22 21 21 20 19 19 18 18 18 18 17 17 17 17 16 16 16 16 16 16 16 16 16 15 15 16 15 15 15 15 15 15 15 15 15 15 15 15 15 15
24 23 23 22 21 20 20 19 19 18 18 18 17 17 17 17 16 16 16 16 16 16 16 16 15 15 15 15 15 15 15 15 15 15 15 15 15 15 15 15 15 15 15
24 23 22 21 20 20 19 19 18 18 18 17 17 17 17 16 16 16 16 15 15 15 15 15 15 15 15 15 15 15 15 15 15 15 15 15 15 15 15 15 15 15 14
23 22 21 21 20 19 19 18 18 18 17 17 17 16 16 16 16 16 15 15 15 15 15 15 15 15 15 15 15 15 15 15 15 15 15 14 14 15 15 14 14 14 14
23 22 21 20 19 19 19 18 18 17 17 16 16 16 16 16 16 15 15 15 15 15 15 15 15 15 15 15 15 15 15 15 14 14 15 14 14 14 14 14 14 14 14
22 21 20 20 19 19 18 18 17 17 17 16 16 16 15 15 16 15 15 15 15 15 15 14 15 14 15 15 15 15 15 14 14 14 14 14 14 14 14 14 14 14 14
21 21 20 20 19 18 18 17 17 17 16 16 16 15 15 15 15 15 15 15 15 15 15 14 14 14 14 14 15 15 14 14 14 14 14 14 14 14 14 14 14 14 13
21 20 20 19 18 18 17 17 17 16 16 16 16 15 15 15 15 15 15 15 15 15 15 14 14 14 14 14 15 14 14 14 14 14 14 14 14 14 13 13 13 13 13
20 19 19 18 17 17 17 16 16 16 16 15 15 15 15 15 15 15 15 15 15 15 14 14 14 14 14 14 14 14 14 14 13 13 13 14 14 13 13 13 13 13 13
19 18 18 17 17 17 16 16 16 15 15 15 15 15 15 15 15 15 15 15 15 15 14 14 14 14 14 14 14 14 13 13 13 13 13 13 13 13 13 13 13 13 13
18 18 17 17 16 16 16 15 15 15 15 15 15 15 15 15 15 15 15 15 15 14 14 14 14 14 14 14 14 14 13 13 13 13 13 13 13 13 13 13 13 13 13
17 17 17 16 16 15 15 15 15 15 15 14 15 15 15 15 15 15 15 15 14 14 14 14 14 14 13 13 13 13 13 13 13 13 12 13 13 13 13 13 13 13 12
17 16 16 16 15 15 15 15 15 14 14 14 14 14 15 15 15 15 15 14 14 14 14 14 14 13 13 13 13 13 13 13 12 12 12 12 12 12 12 12 12 12 12
16 16 16 15 15 15 15 14 14 14 14 14 14 14 14 14 14 14 14 14 14 14 14 14 14 13 13 13 13 13 13 13 12 12 12 12 12 12 12 12 12 12 12
Wind_Speed
9 8 7 8 9 8 7 5 4 4 3 2 2 2 2 2 2 2 2 2 2 2 2 1 1 1 1 1 1 0 1 1 1 1 1 2 3 3 3 3 3 4 5
9 9 8 8 8 8 7 6 5 4 3 2 2 1 1 1 1 1 2 2 2 2 2 1 1 1 1 1 1 1 1 2 1 1 1 1 1 2 2 2 3 3 3
11 10 9 8 8 8 7 6 6 5 4 3 2 1 1 1 1 2 2 2 2 2 2 1 1 2 1 1 2 2 2 2 2 1 1 1 1 1 1 1 1 1 2
11 11 10 9 8 7 8 6 6 5 4 3 3 3 2 2 2 2 2 3 3 2 2 1 1 1 1 1 3 2 2 2 3 2 2 3 2 1 1 2 1 2 2
10 10 10 9 8 8 7 6 6 6 5 4 2 2 2 2 1 1 2 3 2 2 2 1 1 1 1 2 2 2 2 2 3 3 2 2 2 3 3 2 2 2 2
9 9 8 8 7 7 6 6 7 5 4 4 3 2 2 2 2 1 2 2 2 2 2 2 1 1 2 2 2 2 2 2 3 3 2 2 2 2 2 2 3 2 2
8 9 9 8 7 6 6 6 7 5 4 4 2 2 2 3 2 2 2 2 2 2 2 1 1 1 2 2 2 2 2 2 3 3 3 3 3 2 1 1 2 2 1
8 8 8 8 7 6 6 6 7 6 5 4 3 2 2 2 2 2 2 2 1 1 2 1 1 1 2 2 2 2 2 2 3 3 3 3 3 2 1 1 2 2 2
6 7 7 6 7 6 6 6 7 6 6 5 4 3 2 2 2 2 2 1 0 1 2 1 1 1 1 2 1 2 2 1 2 3 2 2 2 2 2 2 2 2 2
6 6 6 6 6 7 6 6 7 5 5 5 4 3 3 2 1 1 2 1 0 1 1 1 1 0 1 1 1 2 1 1 1 2 2 2 2 2 2 2 1 1 1
5 5 5 6 5 5 6 6 5 5 4 4 4 3 3 3 3 2 1 1 1 1 1 1 1 1 1 1 1 2 1 1 2 2 2 2 2 2 2 2 1 1 1
5 5 4 4 3 4 4 4 4 4 4 3 4 3 3 3 2 2 1 1 2 2 1 1 1 2 1 1 2 3 2 2 2 2 2 2 2 3 2 2 2 1 1
4 4 4 3 3 3 3 3 3 3 3 3 3 3 3 3 2 2 2 2 2 2 2 2 2 2 2 2 2 2 3 3 3 2 2 2 2 3 2 2 2 2 1
4 3 3 3 3 2 2 1 2 2 2 2 3 2 3 3 3 2 2 2 2 2 2 2 3 3 2 2 2 2 3 3 3 2 2 2 2 2 2 2 2 2 1
3 3 3 3 3 2 2 1 0 1 1 2 2 2 2 2 2 2 2 2 2 3 2 3 3 3 3 3 2 3 4 3 3 3 2 2 2 2 2 2 1 1 1
3 3 3 3 2 2 1 1 1 0 1 2 2 1 1 2 2 2 2 2 2 2 2 3 3 3 3 1 1 2 3 3 4 3 3 3 2 2 2 2 2 1 2
3 3 2 2 1 1 2 1 1 1 1 1 1 1 1 1 1 2 2 2 2 2 2 3 2 2 1 1 1 2 3 4 3 3 3 4 2 2 1 2 3 3 4
3 3 2 1 1 1 1 1 1 1 1 1 1 1 2 2 2 2 2 2 2 2 3 3 3 2 2 2 2 3 4 4 3 3 3 3 2 2 1 2 2 3 3
2 3 2 2 1 0 1 1 1 2 2 1 2 2 2 2 2 2 3 2 2 3 3 3 3 3 2 2 2 3 3 3 3 4 3 3 3 3 3 2 2 2 3
2 2 1 1 1 0 1 1 1 2 2 2 2 2 3 3 3 3 3 2 3 3 3 2 2 3 3 3 3 3 3 3 3 3 3 4 4 4 4 4 3 3 3
1 1 1 1 1 1 1 1 2 2 2 2 2 2 3 3 2 2 2 3 3 3 3 2 2 3 4 4 4 4 3 3 3 2 2 2 4 5 5 5 4 5 3
1 1 1 1 1 1 1 2 2 2 1 1 2 2 2 3 2 3 3 3 3 3 3 3 3 3 2 3 3 4 5 4 3 3 2 2 4 4 5 5 6 6 3
1 1 1 1 1 1 2 2 2 1 1 2 2 3 3 2 2 3 4 3 3 3 3 2 3 2 2 1 3 4 5 5 3 3 2 2 4 4 5 7 6 5 4
1 1 2 2 2 2 2 2 1 1 2 3 3 3 3 2 1 2 2 2 2 2 2 2 2 2 1 1 1 2 2 2 2 3 4 4 5 4 4 3 4 4 4
2 2 2 3 3 3 3 3 2 2 3 4 4 3 3 2 2 2 2 2 1 2 3 2 2 2 1 1 1 2 2 2 2 2 2 2 2 2 3 3 3 3 3
3 3 4 4 4 4 4 3 3 3 4 5 4 3 3 2 2 2 1 1 2 3 4 3 2 1 1 1 2 3 3 3 3 2 2 2 2 3 3 2 2 3 3
Wind_Direction
161 155 153 150 148 144 142 145 148 133 136 148 169 181 206 211 194 167 146 163 212 228 247 303 279 284 295 274 260 222 280 264 239 266 288 256 223 206 209 214 209 204 197
162 158 157 153 149 144 148 147 147 147 155 166 183 186 195 215 176 135 141 177 215 238 226 228 278 248 250 266 287 289 270 259 234 217 239 287 273 258 228 197 212 216 206
165 161 161 161 156 154 155 163 157 154 165 171 168 193 192 214 197 180 168 189 211 222 269 241 278 277 240 226 254 268 256 264 264 231 207 229 249 300 277 242 221 224 228
166 164 164 166 168 164 163 153 155 155 165 179 185 196 194 213 222 194 174 188 204 209 206 229 249 283 290 267 258 248 284 273 272 268 225 207 203 233 270 283 243 242 242
162 162 166 170 171 166 164 157 153 159 166 176 193 215 211 221 227 195 176 188 192 201 198 188 226 253 268 265 288 311 287 292 287 288 282 255 230 225 221 248 258 266 251
155 156 166 161 162 157 154 153 149 155 162 173 189 210 233 237 247 213 182 198 193 206 202 186 208 248 266 267 271 277 276 272 281 286 292 289 282 254 232 231 241 240 240
152 156 157 155 160 156 155 152 148 157 162 169 183 208 236 231 245 253 207 209 205 192 185 192 193 258 274 275 275 265 273 269 277 278 278 280 279 284 272 251 259 261 243
156 155 155 157 154 156 158 153 154 163 169 173 189 197 221 230 235 254 264 210 246 144 143 167 179 225 255 266 265 265 256 265 276 275 275 276 277 280 256 248 252 273 271
144 147 151 152 158 160 155 152 149 165 172 177 185 186 191 231 255 227 247 272 347 135 126 141 158 225 259 289 301 297 304 325 295 285 285 284 279 270 265 247 235 235 261
138 138 143 146 160 167 158 155 156 164 173 180 192 193 198 217 248 248 226 234 216 57 105 137 173 218 261 313 302 310 329 343 318 301 316 313 310 311 284 275 259 245 239
137 130 133 137 152 150 151 152 150 161 172 183 182 191 189 211 215 228 258 238 260 195 189 195 254 258 236 249 276 289 282 287 292 293 307 308 314 310 306 312 291 263 227
135 131 124 128 126 136 142 148 157 171 174 172 181 189 178 196 214 218 230 233 223 223 207 211 230 258 244 234 251 264 272 264 273 286 292 293 295 305 306 310 303 276 236
130 137 131 125 121 110 126 155 167 174 174 165 172 186 194 196 203 216 222 235 234 235 231 226 239 248 256 248 258 261 271 268 264 261 264 278 289 293 305 292 291 273 250
140 145 126 114 111 107 106 123 171 164 169 160 170 179 203 207 208 206 201 228 239 244 243 237 254 247 249 260 266 270 260 262 266 260 250 259 260 275 284 270 273 270 260
142 122 113 106 105 104 111 110 73 160 168 160 180 191 194 211 206 200 200 219 238 242 239 238 246 246 238 251 254 266 259 256 260 259 246 244 218 219 253 268 261 248 236
155 127 111 107 110 122 136 128 148 62 152 170 186 202 198 225 216 199 201 216 227 236 242 240 240 252 260 278 257 259 274 259 251 253 255 247 206 207 219 244 271 252 231
148 127 123 134 150 165 142 148 138 152 164 187 176 170 204 227 224 221 209 218 219 230 243 250 242 239 254 260 290 288 268 256 250 249 252 261 247 183 215 228 243 257 258
132 122 133 160 181 170 149 124 173 157 190 213 214 203 214 224 234 233 223 225 224 237 245 253 242 232 250 238 244 281 260 257 247 237 235 237 252 229 227 232 234 243 249
125 131 174 192 184 190 173 164 208 191 206 226 238 229 224 234 234 244 236 233 236 238 237 246 236 230 237 245 250 259 262 252 247 239 226 215 213 221 207 210 229 255 267
120 134 165 170 156 152 192 203 235 226 227 237 255 241 234 233 235 244 242 237 233 234 235 241 245 238 225 229 238 243 254 263 257 241 217 200 200 203 203 214 222 240 261
138 147 167 168 162 189 203 218 239 244 239 230 248 247 243 236 226 246 246 243 240 234 236 234 238 235 223 213 220 230 242 265 278 261 235 208 192 212 220 221 223 231 253
133 155 134 122 158 197 205 231 248 258 257 251 255 259 251 254 240 236 242 234 237 238 233 231 244 250 220 195 214 228 240 253 259 261 254 226 211 219 226 227 223 224 234
160 181 182 194 202 220 215 236 265 257 256 264 268 269 257 245 241 244 246 229 227 240 248 245 253 250 208 194 218 228 247 254 253 272 275 258 233 227 229 225 218 212 220
198 225 219 214 226 233 237 241 254 266 264 260 265 253 246 238 229 258 266 263 257 258 268 271 277 278 211 189 269 251 249 255 259 279 272 249 239 229 234 226 213 214 217
230 222 228 227 228 231 236 245 237 246 264 267 261 254 254 251 233 234 269 270 268 229 233 254 263 272 281 261 274 257 261 273 269 275 261 247 240 235 224 225 218 213 208
230 224 225 230 230 230 239 245 244 245 255 259 254 256 255 249 240 228 254 274 228 208 196 200 207 261 190 209 255 257 257 256 240 212 235 247 243 246 240 224 215 213 212
Height
1503 1505 1508 1509 1511 1512 1513 1514 1516 1516 1517 1518 1519 1520 1521 1522 1523 1523 1523 1523 1524 1524 1525 1525 1525 1525 1526 1526 1526 1527 1527 1527 1528 1528 1528 1528 1528 1528 1528 1529 1529 1529 1530
1501 1504 1506 1508 1509 1511 1512 1513 1514 1515 1516 1517 1518 1519 1520 1521 1522 1522 1522 1522 1522 1523 1524 1524 1524 1524 1524 1525 1525 1525 1525 1526 1527 1527 1527 1527 1528 1527 1527 1527 1527 1527 1528
1498 1501 1504 1506 1508 1509 1510 1512 1513 1514 1515 1516 1517 1518 1519 1520 1520 1520 1520 1521 1521 1522 1522 1522 1522 1523 1523 1523 1523 1524 1524 1525 1525 1526 1527 1526 1525 1526 1526 1525 1525 1525 1526
1495 1499 1502 1504 1507 1508 1510 1510 1511 1512 1514 1515 1516 1516 1517 1518 1518 1519 1519 1519 1520 1520 1521 1521 1521 1521 1522 1522 1522 1522 1522 1523 1524 1524 1524 1525 1524 1524 1524 1524 1524 1524 1524
1493 1496 1499 1502 1505 1507 1508 1509 1510 1511 1512 1513 1514 1515 1516 1516 1517 1517 1517 1518 1518 1519 1519 1519 1519 1519 1520 1520 1520 1520 1521 1521 1521 1522 1522 1522 1522 1522 1522 1522 1522 1522 1523
1491 1495 1498 1500 1503 1505 1507 1508 1508 1509 1511 1511 1512 1513 1514 1514 1515 1515 1516 1516 1517 1517 1517 1517 1517 1518 1518 1518 1518 1518 1519 1519 1519 1519 1519 1519 1519 1520 1520 1519 1519 1520 1520
1490 1493 1496 1499 1501 1503 1505 1506 1507 1508 1509 1509 1510 1511 1512 1513 1513 1514 1514 1514 1515 1515 1515 1515 1515 1515 1515 1516 1516 1516 1516 1517 1517 1517 1517 1516 1517 1518 1518 1518 1518 1518 1518
1488 1492 1495 1497 1499 1501 1503 1504 1505 1506 1507 1507 1508 1509 1510 1511 1511 1512 1513 1513 1513 1513 1513 1513 1513 1513 1514 1514 1514 1514 1514 1514 1514 1514 1514 1514 1515 1515 1515 1516 1516 1516 1516
1487 1490 1493 1495 1498 1500 1501 1503 1503 1504 1505 1506 1507 1507 1508 1509 1509 1510 1511 1511 1511 1512 1511 1511 1511 1511 1511 1511 1511 1512 1512 1512 1511 1512 1512 1512 1512 1512 1513 1513 1513 1514 1513
1487 1489 1492 1494 1497 1498 1500 1502 1502 1502 1503 1504 1505 1506 1506 1507 1507 1508 1508 1508 1509 1509 1509 1509 1509 1509 1509 1509 1509 1509 1509 1509 1509 1509 1509 1509 1509 1509 1510 1510 1510 1511 1511
1486 1489 1491 1493 1495 1497 1499 1500 1500 1501 1502 1502 1503 1503 1503 1504 1505 1505 1506 1506 1507 1507 1507 1507 1507 1507 1507 1507 1507 1507 1507 1507 1507 1507 1507 1507 1507 1507 1507 1507 1508 1508 1509
1486 1488 1491 1493 1495 1496 1497 1498 1499 1500 1500 1500 1501 1501 1502 1502 1503 1503 1503 1504 1504 1504 1505 1505 1505 1505 1505 1505 1505 1504 1505 1504 1504 1504 1504 1504 1504 1504 1504 1505 1505 1505 1506
1485 1488 1490 1492 1494 1495 1496 1497 1497 1498 1498 1499 1499 1499 1500 1500 1500 1501 1501 1501 1501 1502 1502 1502 1503 1502 1502 1502 1502 1502 1502 1502 1502 1502 1501 1501 1501 1501 1502 1502 1502 1503 1503
1484 1487 1488 1491 1492 1493 1494 1495 1496 1497 1497 1497 1497 1497 1498 1498 1498 1498 1498 1499 1499 1499 1499 1499 1500 1500 1500 1499 1499 1499 1499 1499 1499 1499 1499 1499 1499 1499 1499 1499 1500 1500 1500
1484 1485 1487 1489 1491 1492 1493 1494 1495 1495 1495 1495 1495 1495 1495 1496 1496 1496 1496 1496 1496 1496 1496 1496 1496 1497 1496 1496 1496 1496 1496 1496 1496 1496 1496 1496 1496 1496 1497 1497 1497 1497 1497
1483 1485 1487 1489 1490 1491 1492 1493 1494 1494 1494 1493 1493 1493 1493 1494 1494 1493 1494 1494 1494 1494 1493 1493 1493 1494 1494 1494 1494 1494 1493 1493 1493 1493 1493 1493 1493 1493 1494 1495 1495 1495 1495
1482 1484 1486 1488 1489 1490 1490 1491 1491 1492 1492 1492 1492 1492 1491 1491 1491 1491 1491 1491 1491 1491 1491 1491 1491 1491 1491 1491 1491 1490 1490 1490 1490 1490 1490 1491 1491 1491 1491 1491 1492 1492 1493
1480 1483 1485 1486 1488 1488 1488 1488 1489 1490 1490 1490 1490 1490 1489 1490 1490 1490 1490 1489 1489 1489 1489 1489 1489 1488 1488 1488 1487 1487 1487 1487 1486 1487 1487 1487 1488 1488 1488 1489 1489 1489 1490
1480 1482 1484 1485 1485 1486 1486 1486 1487 1488 1488 1488 1488 1488 1488 1488 1488 1487 1487 1487 1487 1487 1487 1487 1486 1486 1485 1485 1484 1484 1484 1484 1484 1484 1484 1484 1484 1485 1486 1486 1486 1486 1487
1479 1480 1482 1483 1484 1484 1484 1485 1485 1486 1486 1486 1486 1486 1486 1486 1485 1485 1485 1486 1485 1485 1485 1485 1484 1483 1482 1482 1481 1481 1481 1480 1481 1481 1481 1482 1482 1482 1483 1483 1483 1483 1484
1477 1478 1480 1481 1482 1482 1482 1482 1483 1483 1483 1483 1483 1483 1483 1484 1484 1484 1484 1484 1483 1483 1482 1482 1481 1480 1479 1479 1478 1478 1478 1477 1478 1478 1478 1478 1479 1479 1480 1480 1480 1481 1482
1475 1476 1477 1478 1479 1479 1480 1480 1480 1481 1481 1481 1481 1481 1481 1481 1481 1481 1481 1482 1481 1480 1479 1479 1478 1477 1476 1476 1476 1476 1475 1475 1475 1475 1475 1476 1476 1476 1477 1477 1478 1479 1479
1472 1473 1474 1475 1476 1477 1477 1477 1477 1477 1477 1478 1478 1478 1478 1478 1478 1478 1479 1479 1478 1477 1477 1476 1476 1475 1474 1473 1473 1473 1473 1473 1472 1472 1473 1473 1473 1473 1474 1474 1475 1476 1477
1470 1470 1471 1472 1473 1474 1475 1475 1475 1474 1474 1475 1475 1475 1475 1476 1476 1476 1476 1476 1475 1475 1475 1474 1473 1473 1472 1471 1470 1470 1470 1470 1469 1469 1470 1470 1470 1471 1471 1471 1473 1473 1474
1468 1468 1469 1469 1470 1471 1471 1471 1471 1472 1472 1472 1472 1473 1473 1473 1473 1473 1473 1473 1473 1473 1472 1471 1471 1470 1469 1468 1469 1468 1467 1467 1467 1467 1467 1467 1467 1467 1468 1468 1469 1470 1471
1465 1465 1466 1466 1467 1467 1467 1468 1468 1468 1469 1469 1470 1470 1471 1471 1471 1470 1470 1470 1470 1470 1470 1469 1468 1467 1467 1466 1466 1465 1465 1465 1464 1464 1464 1464 1465 1465 1465 1466 1466 1467 1468